Location: Ebersberg
(49.6156°N, 8.9942°E)
Time: 14:50:40
(UTC+00:00)

Daily predictions for brighter satellites

Satellite Brightness Start Highest point End
(mag) Time Altitude Azimuth Time Altitude Azimuth Time Altitude Azimuth
BREEZE-M DEB 4.4 20:05:59 10° WSW 20:10:24 62° S 20:21:39 10° E
Okean-O 2.7 20:10:45 10° SSE 20:15:08 86° WSW 20:19:32 10° NNW
CZ-4 R/B 3.6 20:12:24 10° SW 20:15:24 22° W 20:18:26 10° NW
Helios 1A Rocket 2.6 20:18:27 10° N 20:21:33 66° WNW 20:24:39 10° SSW
USA 215 4.2 20:18:40 10° E 20:24:54 49° N 20:31:08 10° WNW
Cosmos 1420 Rocket 4.2 20:19:47 10° NNW 20:24:59 66° ENE 20:30:07 10° SSE
SL-08 R/B 3.4 20:20:32 10° NNE 20:25:07 78° WNW 20:29:41 10° SSW
ADEOS 4.5 20:21:08 10° S 20:26:08 47° W 20:31:11 10° NNW
Cosmos 1238 4.2 20:26:28 10° S 20:29:51 74° E 20:32:53 10° NNE
NOSS 2-3 (C) 3.0 20:26:47 10° SW 20:30:11 87° NW 20:33:51 10° NE
Cosmos 1500 Rocket 4.2 20:28:37 10° NNW 20:32:50 54° W 20:37:00 10° S
Cosmos 2344 3.7 20:25:55 10° SSW 20:33:31 50° ESE 20:40:23 10° NE
Cosmos 1703 2.8 20:33:27 10° SSW 20:36:36 79° W 20:39:48 10° N
Ariane Rocket 3.1 20:32:17 10° SSE 20:37:17 65° ENE 20:42:20 10° N
USA 276 3.2 20:38:01 10° S 20:39:20 14° SE 20:40:47 10° ESE
Spot 2 Rocket 4.4 20:34:43 10° S 20:39:37 48° W 20:44:33 10° NNW
IRS-1C Rocket 4.2 20:34:44 10° SSE 20:39:56 68° ENE 20:45:10 10° N
CZ-4B R/B 2.9 20:37:41 10° SSE 20:41:37 73° ENE 20:45:39 10° N
Cosmos 1538 Rocket 4.2 20:37:42 10° SSW 20:42:53 79° WNW 20:48:11 10° NNE
Cosmos 2315 Rocket 4.4 20:37:27 10° SSE 20:43:17 45° E 20:49:08 10° NNE
Iridium 4 Rocket 3.4 20:38:48 10° S 20:43:52 69° E 20:48:32 10° N
Okean O Rocket 2.6 20:39:50 10° S 20:44:01 45° W 20:48:15 10° NNW
Terra 4.0 20:40:42 10° SW 20:44:23 22° W 20:48:06 10° NW
Cosmos 1833 Rocket 3.2 20:39:43 10° NW 20:45:15 55° WSW 20:50:43 10° S
USA 59 Rocket 0.1 20:43:15 10° S 20:46:37 32° SE 20:49:25 10° ENE
Meteor 1-13 Rocket 4.4 20:41:46 10° S 20:47:39 69° E 20:53:34 10° NNE
Cosmos 923 Rocket 4.1 20:44:15 10° S 20:49:21 56° ESE 20:54:27 10° NNE
Cosmos 1470 Rocket 4.2 20:46:44 10° N 20:50:59 43° ENE 20:54:40 13° SE
NOSS 2-1 (D) 3.7 20:48:04 10° S 20:51:28 30° SE 20:54:18 10° ENE
CZ-4B R/B 3.6 20:47:02 10° SSE 20:52:07 79° ENE 20:57:23 10° NNW
Cosmos 2112 Rocket 4.5 20:52:10 10° S 20:56:57 40° ESE 21:01:47 10° NE
Cosmos 1953 2.3 20:54:27 10° NNW 20:57:59 63° W 21:01:28 10° S
Cosmos 1328 Rocket 3.5 20:54:17 10° S 20:58:34 68° E 21:02:53 10° NNE
S3M 4.0 20:55:10 10° S 21:01:15 74° E 21:07:26 10° NNE
GP-B 3.2 20:57:00 10° N 21:01:23 79° W 21:05:44 10° S
Cosmos 1371 Rocket 4.1 21:00:37 10° NNW 21:05:52 73° ENE 21:10:11 15° SSE
CZ-2C R/B 2.2 21:05:29 19° SE 21:07:14 51° ENE 21:09:55 10° N
BREEZE-M R/B 3.6 21:03:18 10° SW 21:07:19 61° SSE 21:15:14 10° ENE
NOSS 3-2 (C) 4.4 21:02:23 10° WSW 21:07:27 47° NW 21:13:37 10° NE
Cosmos 1709 Rocket 4.1 21:02:12 10° N 21:08:38 88° E 21:14:36 12° S
Cosmos 2082 Rocket 2.6 21:03:14 10° NNW 21:08:46 55° NE 21:13:35 14° SE
NOSS 2-1 (C) 3.4 21:07:35 10° SSW 21:11:12 38° SE 21:14:10 10° ENE
Cosmos 2278 Rocket 2.3 21:08:22 10° S 21:13:53 57° ESE 21:19:25 10° NE
Cosmos 494 Rocket 4.1 21:09:32 10° S 21:14:39 58° ESE 21:19:48 10° NNE
Cosmos 1666 Rocket 3.9 21:13:50 10° NNW 21:18:05 59° W 21:21:56 12° S
Helios 1A 4.2 21:15:35 10° NE 21:18:48 23° E 21:20:40 17° SE
Meteor 1-21 4.2 21:13:15 10° S 21:18:51 77° E 21:24:33 10° NNE
Meteor 1-16 Rocket 4.3 21:14:55 10° NNW 21:20:34 89° WSW 21:25:27 15° S
Timation 2 Rocket 4.4 21:15:12 11° S 21:20:59 44° ESE 21:27:10 10° NE
USA-17 4.5 21:17:51 10° NW 21:21:00 64° NE 21:23:13 18° SE
SPOT 3 Rocket 4.5 21:17:46 10° S 21:22:38 42° W 21:27:33 10° NNW
USA 238 DEB 3.5 21:17:09 10° SSW 21:23:15 78° SE 21:30:04 10° NE
USA 238 3.5 21:17:23 10° SSW 21:23:29 77° SE 21:30:17 10° NE
Lacrosse 5 rocket 2.7 21:21:47 10° W 21:25:07 35° NNW 21:28:24 10° NE
Cosmos 1943 Rocket 2.2 21:20:04 10° SSW 21:25:43 87° ESE 21:31:24 10° NNE
SL-8 R/B 4.1 21:24:28 10° SW 21:28:50 38° SSE 21:33:13 10° E
Cosmos 1869 Rocket 4.5 21:26:34 10° N 21:30:34 36° ENE 21:33:18 18° SE
ARIANE 5 R/B 4.4 21:27:49 11° ESE 21:31:07 22° ENE 21:34:32 10° N
BREEZE-M DEB (TANK) 4.4 21:13:30 10° W 21:35:58 90° N 21:41:30 10° E
Cosmos 1515 Rocket 3.5 21:36:36 17° S 21:39:49 74° E 21:44:08 10° NNE
Meteor 1-12 Rocket 4.3 21:37:33 10° NNW 21:43:18 84° W 21:47:41 18° S
USA 81 4.2 21:40:24 10° N 21:45:39 65° E 21:49:12 21° SSE
Okean 2 3.3 21:42:54 16° SSW 21:45:56 74° WNW 21:49:48 10° N
Cosmos 1624 Rocket 4.5 21:41:26 10° NNW 21:46:36 54° WSW 21:50:25 18° S
ALOS 2 4.1 21:44:00 13° ESE 21:47:01 26° ENE 21:50:40 10° N
Cosmos 1048 Rocket 4.2 21:43:50 18° S 21:47:35 53° ESE 21:52:44 10° NNE
Cosmos 1633 Rocket 4.3 21:43:47 10° NNW 21:47:48 36° W 21:51:28 12° SSW
Cosmos 1680 Rocket 3.8 21:42:55 10° SSW 21:48:05 68° WNW 21:53:18 10° NNE
COSMOS 2406 3.7 21:45:20 10° NNW 21:50:58 56° NE 21:55:18 17° SE
Cosmos 1400 Rocket 2.5 21:47:34 10° NNW 21:51:14 81° WSW 21:53:10 26° S
Cosmos 2369 Rocket 3.8 21:50:39 15° SE 21:52:41 18° E 21:56:21 10° ENE
Cosmos 2056 Rocket 4.2 21:50:48 10° NW 21:55:36 43° WSW 21:59:06 17° SSW
IKONOS-2 4.4 21:54:34 10° NNE 21:58:40 70° ESE 22:01:06 23° S
ARIANE 6 FM1 Upper Stage 3.8 21:58:07 23° SE 21:58:46 24° ESE 22:02:08 10° ENE
Cosmos 1295 Rocket 4.4 21:52:57 10° N 21:59:04 83° E 22:03:19 21° SSE
Cosmos 1656 Rocket 4.0 21:59:36 21° S 22:02:53 45° ESE 22:08:11 10° NE
USA 215 3.3 22:01:03 10° ESE 22:07:34 80° NNE 22:14:07 10° WNW
USA 276 1.3 22:09:12 10° WSW 22:11:35 66° SSE 22:14:17 10° E
Okean 1-7 4.2 22:12:10 21° SE 22:13:50 28° E 22:17:29 10° NNE
Cosmos 2074 Rocket 4.0 22:08:15 10° N 22:14:31 90° W 22:18:40 22° S
NOSS 2-1 (E) 3.6 22:12:43 10° WSW 22:16:25 54° NW 22:19:30 10° NE
Spot 4 4.1 22:17:54 24° SE 22:20:45 64° ENE 22:25:33 10° N
Cosmos 1328 3.7 22:21:51 34° SSE 22:23:05 54° E 22:26:33 10° NNE
NOSS 3-1 (C) 3.6 22:21:45 26° SSE 22:23:28 34° ESE 22:28:20 10° NE
Helios 1B rocket 1.9 22:24:53 36° SSE 22:26:13 89° ENE 22:29:41 10° NNW
USA 308 1.8 22:26:25 54° SSE 22:26:29 54° SE 22:30:09 10° ENE
Lacrosse 4 Rocket 2.9 22:25:02 10° NNW 22:28:52 32° NE 22:32:23 11° ESE
Cosmos 1812 3.6 22:30:28 10° NW 22:31:08 15° WNW 22:31:08 15° WNW
USA 59 Rocket 1.6 22:32:21 10° W 22:35:06 24° NW 22:37:36 10° NNE
Cosmos 1441 Rocket 3.8 22:33:46 21° SW 22:35:29 39° WNW 22:38:33 10° N
CSL-04 DEB 4.1 22:35:05 35° SSE 22:36:32 80° ENE 22:40:12 10° NNW
ATLAS 5 CENTAUR R/B 0.6 22:37:18 49° SE 22:37:30 50° SE 22:40:29 10° NE
Okean 3 4.3 22:34:54 17° SW 22:37:37 41° WNW 22:41:27 10° N
Nadezhda 1 Rocket 4.0 22:36:02 24° S 22:39:57 78° E 22:46:13 10° NNE
BREEZE-M DEB (TANK) 3.0 22:33:15 10° WNW 22:40:13 80° NNE 22:42:17 17° ESE
COSMOS 2455 4.1 22:38:35 21° SE 22:40:46 25° ESE 22:45:35 10° NE
Meteor 1-24 Rocket 4.4 22:41:09 24° SSE 22:44:29 48° E 22:50:14 10° NNE
Cosmos 468 4.5 22:42:09 22° SSW 22:45:37 88° ESE 22:50:58 10° NNE
GEOS 3 Rocket 4.1 22:40:59 12° ESE 22:45:54 62° NE 22:51:15 10° NW
Cosmos 2344 4.4 22:40:44 10° WSW 22:47:54 48° NNW 22:55:01 10° NE
Exosat Rocket 4.3 22:44:01 23° S 22:47:55 71° ESE 22:56:10 10° NNE
Cosmos 2082 Rocket 3.4 22:47:47 10° NW 22:52:31 28° WSW 22:55:23 18° SSW
Cosmos 1452 Rocket 3.9 22:48:08 10° NNW 22:53:14 51° WSW 22:55:52 27° SSW
Helios 1A 4.1 22:49:54 10° N 22:53:33 36° WNW 22:56:21 15° SW
ACS3 Solar Sail 2.8 22:48:50 10° NNE 22:53:43 29° E 22:56:47 18° SE
MetOp-A 4.0 22:52:47 25° SE 22:54:35 44° ENE 22:58:11 10° N
Cosmos 967 Rocket 4.5 22:50:18 17° SSW 22:55:22 78° SE 23:01:51 10° NE
Cosmos 1869 4.3 22:52:21 10° N 22:55:26 29° ENE 22:56:49 22° ESE
SL-4 R/B 1.3 22:55:58 50° SSW 22:56:25 56° SSE 22:59:32 10° ENE
Cosmos 2278 Rocket 3.9 22:53:15 10° WSW 22:58:16 32° NW 23:03:19 10° NNE
Cosmos 614 Rocket 4.1 22:57:56 19° SW 23:01:31 68° WNW 23:06:34 10° NNE
Lacrosse 5 rocket 3.5 22:59:23 10° NW 23:02:20 24° N 23:05:13 10° ENE
ARIANE 5 R/B 3.1 23:05:10 29° SSW 23:07:07 49° W 23:11:25 10° NNW
Meteor 2-5 Rocket 4.0 23:04:24 27° SSE 23:07:35 61° E 23:13:25 10° NNE
Cosmos 546 4.4 23:05:33 10° WNW 23:09:20 82° SSW 23:12:52 12° ESE
CZ-2C R/B 4.3 23:05:34 10° N 23:10:10 53° WNW 23:13:10 21° SW
Cosmos 1943 Rocket 4.4 23:05:45 10° W 23:10:11 23° NW 23:14:37 10° N
SL-8 Rocket 4.0 23:04:21 10° N 23:10:32 78° E 23:14:17 25° SSE
SL-8 R/B 3.5 23:06:05 10° WSW 23:10:49 75° S 23:15:33 10° E
SAR-Lupe-2 3.1 23:15:20 49° SSE 23:16:06 88° WSW 23:19:19 10° NNW
CZ-2C R/B 3.1 23:11:46 10° NNE 23:17:10 74° ESE 23:19:49 29° S
CZ-2C R/B 2.6 23:16:25 26° SSE 23:19:25 78° ENE 23:24:44 10° NNW
Meteor 2-15 4.4 23:13:46 10° N 23:19:53 87° W 23:23:25 27° S
Cosmos 1733 Rocket 3.6 23:16:11 10° NNW 23:20:16 44° W 23:22:03 28° SSW
CZ-3B R/B 4.3 23:16:36 23° SSW 23:20:54 56° SE 23:46:41 10° NE
Cosmos 1833 4.3 23:16:02 10° NNW 23:21:43 78° ENE 23:25:37 21° SE
ALOS 2 3.4 23:21:23 27° SSW 23:23:11 40° W 23:27:20 10° NNW
SL-12 R/B(2) 4.4 23:15:35 12° SW 23:23:13 89° SE 23:33:12 10° NE
Cosmos 1707 Rocket 3.8 23:22:47 29° SSW 23:24:54 63° WNW 23:29:19 10° N
Cosmos 2341 Rocket 4.0 23:18:55 10° N 23:25:11 88° W 23:28:53 26° S
Cosmos 2228 Rocket 3.0 23:26:00 33° SSW 23:27:57 84° WNW 23:32:24 10° N
Cosmos 1703 Rocket 4.0 23:26:16 30° SSE 23:28:05 51° E 23:32:22 10° NNE
Meteor 2-13 Rocket 4.4 23:27:03 27° S 23:30:39 86° E 23:36:47 10° N
Cosmos 1356 Rocket 3.2 23:26:41 10° NNW 23:30:43 87° WSW 23:32:18 36° S
USA 290 2.4 23:27:45 10° NW 23:30:49 49° WSW 23:31:10 46° SW
Landsat 5 4.3 23:27:32 10° NNE 23:30:54 32° E 23:32:03 26° SE
Cosmos 2297 Rocket 4.5 23:27:45 10° N 23:32:09 22° NE 23:36:33 10° E
COSMOS 2406 4.4 23:30:08 10° NW 23:34:55 28° WSW 23:37:19 21° SW
Cosmos 2369 Rocket 2.2 23:32:23 23° SSW 23:35:58 82° WNW 23:41:37 10° NNE
Cosmos 1862 Rocket 4.3 23:34:20 24° SW 23:36:31 44° WNW 23:40:40 10° N
Cosmos 1315 Rocket 3.2 23:33:15 10° NNW 23:36:54 45° W 23:38:04 34° SW
ARIANE 6 FM1 Upper Stage 3.2 23:34:00 14° WSW 23:37:30 56° NW 23:41:33 10° NE
Cosmos 2297 3.7 23:36:40 24° SSW 23:40:16 87° WNW 23:46:02 10° NNE
USA 276 1.7 23:41:41 10° W 23:44:19 80° N 23:47:12 10° E
USA 308 3.3 23:45:29 10° W 23:48:33 50° NNW 23:52:37 10° ENE
Okean 1-7 4.3 23:48:24 18° WSW 23:50:44 31° WNW 23:54:31 10° N
USA 215 3.7 23:47:35 24° S 23:50:57 40° SW 23:57:03 10° WNW
